• In Italy
  • List of Countries
  • For 7 days
  • Water Temperature
  • Satellite Maps
  • Weather Map
  • Weather Widgets
  • user-avatar
    Login

    Hourly Weather Mazari Sharif

    Today, 12 December, Tuesday

    Time Temperature Precipitation Wind Pressure Humidity
    00:00 0°C° 0 mm 1 mps 655 mmHg 52%
    01:00 -1°C° 0 mm 1 mps 655 mmHg 53%
    02:00 -1°C° 0 mm 1 mps 655 mmHg 54%
    03:00 -1°C° 0 mm 1 mps 655 mmHg 54%
    04:00 -1°C° 0 mm 1 mps 655 mmHg 55%
    05:00 -2°C° 0 mm 1 mps 656 mmHg 55%
    06:00 -2°C° 0 mm 1 mps 656 mmHg 55%
    07:00 -2°C° 0 mm 1 mps 656 mmHg 55%
    08:00 0°C° 0 mm 1 mps 657 mmHg 49%
    09:00 -1°C° 0 mm 2 mps 658 mmHg 43%
    10:00 +1°C° 0 mm 2 mps 658 mmHg 37%
    11:00 +2°C° 0 mm 2 mps 658 mmHg 35%
    12:00 +2°C° 0 mm 2 mps 658 mmHg 33%
    13:00 +2°C° 0 mm 2 mps 658 mmHg 32%
    14:00 +2°C° 0 mm 2 mps 658 mmHg 33%
    15:00 +1°C° 0 mm 2 mps 658 mmHg 34%
    16:00 +1°C° 0 mm 2 mps 659 mmHg 35%
    17:00 +1°C° 0 mm 1 mps 659 mmHg 38%
    18:00 0°C° 0 mm 1 mps 659 mmHg 40%
    19:00 -2°C° 0 mm 0 mps 659 mmHg 42%
    20:00 -2°C° 0 mm 0 mps 659 mmHg 43%
    21:00 -2°C° 0 mm 0 mps 659 mmHg 44%
    22:00 -3°C° 0 mm 0 mps 659 mmHg 45%
    23:00 -3°C° 0 mm 0 mps 659 mmHg 46%

    Tomorrow, 13 December, Wednesday

    Time Temperature Precipitation Wind Pressure Humidity
    00:00 -3°C° 0 mm 0 mps 659 mmHg 46%
    01:00 -2°C° 0 mm 1 mps 658 mmHg 47%
    02:00 -3°C° 0 mm 1 mps 658 mmHg 48%
    03:00 -3°C° 0 mm 1 mps 658 mmHg 49%
    04:00 -3°C° 0 mm 1 mps 658 mmHg 51%
    05:00 -3°C° 0 mm 1 mps 658 mmHg 51%
    06:00 -3°C° 0 mm 1 mps 658 mmHg 52%
    07:00 -4°C° 0 mm 0 mps 658 mmHg 53%
    08:00 -2°C° 0 mm 1 mps 658 mmHg 48%
    09:00 0°C° 0 mm 1 mps 659 mmHg 43%
    10:00 +1°C° 0 mm 1 mps 659 mmHg 39%
    11:00 +1°C° 0 mm 2 mps 658 mmHg 38%
    12:00 +1°C° 0 mm 2 mps 658 mmHg 37%
    13:00 +2°C° 0 mm 2 mps 657 mmHg 36%
    14:00 +1°C° 0 mm 2 mps 657 mmHg 38%
    15:00 +1°C° 0 mm 1 mps 657 mmHg 40%
    16:00 +1°C° 0 mm 1 mps 657 mmHg 42%
    17:00 0°C° 0 mm 1 mps 657 mmHg 44%
    18:00 0°C° 0 mm 1 mps 657 mmHg 46%
    19:00 -2°C° 0 mm 0 mps 657 mmHg 48%
    20:00 -2°C° 0 mm 0 mps 657 mmHg 48%
    21:00 -3°C° 0 mm 0 mps 656 mmHg 48%
    22:00 -2°C° 0 mm 1 mps 656 mmHg 48%
    23:00 -3°C° 0 mm 0 mps 656 mmHg 49%

    Day after tomorrow, 14 December, Thursday

    Time Temperature Precipitation Wind Pressure Humidity
    00:00 -3°C° 0 mm 0 mps 656 mmHg 49%
    01:00 -3°C° 0 mm 0 mps 656 mmHg 49%
    02:00 -4°C° 0 mm 0 mps 656 mmHg 50%
    03:00 -4°C° 0 mm 0 mps 656 mmHg 50%
    04:00 -4°C° 0 mm 0 mps 656 mmHg 50%
    05:00 -4°C° 0 mm 0 mps 656 mmHg 50%
    06:00 -4°C° 0 mm 0 mps 656 mmHg 50%
    07:00 -4°C° 0 mm 0 mps 657 mmHg 49%
    08:00 -1°C° 0 mm 1 mps 657 mmHg 45%
    09:00 0°C° 0 mm 1 mps 658 mmHg 41%
    10:00 +1°C° 0 mm 1 mps 658 mmHg 37%
    11:00 +1°C° 0 mm 1 mps 658 mmHg 37%
    12:00 +2°C° 0 mm 1 mps 658 mmHg 36%
    13:00 +1°C° 0 mm 2 mps 658 mmHg 36%
    14:00 +2°C° 0 mm 1 mps 658 mmHg 38%
    15:00 +1°C° 0 mm 1 mps 658 mmHg 39%
    16:00 +1°C° 0 mm 1 mps 658 mmHg 41%
    17:00 +1°C° 0 mm 1 mps 658 mmHg 43%
    18:00 -1°C° 0 mm 0 mps 658 mmHg 45%
    19:00 -1°C° 0 mm 0 mps 658 mmHg 46%
    20:00 -1°C° 0 mm 0 mps 658 mmHg 47%
    21:00 0°C° 0 mm 1 mps 658 mmHg 47%
    22:00 -1°C° 0 mm 1 mps 658 mmHg 47%
    23:00 -1°C° 0 mm 1 mps 658 mmHg 47%

    15 December, Friday

    Time Temperature Precipitation Wind Pressure Humidity
    00:00 -1°C° 0 mm 1 mps 658 mmHg 47%
    01:00 -1°C° 0 mm 1 mps 658 mmHg 47%
    02:00 -1°C° 0 mm 1 mps 658 mmHg 47%
    03:00 -1°C° 0 mm 1 mps 658 mmHg 48%
    04:00 -1°C° 0 mm 1 mps 658 mmHg 48%
    05:00 -1°C° 0 mm 1 mps 658 mmHg 47%
    06:00 -1°C° 0 mm 1 mps 658 mmHg 45%
    07:00 -1°C° 0 mm 1 mps 658 mmHg 44%
    08:00 -1°C° 0 mm 2 mps 659 mmHg 39%
    09:00 +2°C° 0 mm 2 mps 660 mmHg 34%
    10:00 +3°C° 0 mm 2 mps 660 mmHg 29%
    11:00 +4°C° 0 mm 2 mps 660 mmHg 27%
    12:00 +5°C° 0 mm 2 mps 659 mmHg 26%
    13:00 +5°C° 0 mm 2 mps 659 mmHg 25%
    14:00 +4°C° 0 mm 2 mps 659 mmHg 28%
    15:00 +4°C° 0 mm 2 mps 659 mmHg 31%
    16:00 +3°C° 0 mm 2 mps 658 mmHg 33%
    17:00 +2°C° 0 mm 2 mps 658 mmHg 35%
    18:00 +2°C° 0 mm 2 mps 659 mmHg 37%
    19:00 +2°C° 0 mm 1 mps 659 mmHg 38%
    20:00 +2°C° 0 mm 1 mps 659 mmHg 37%
    21:00 +2°C° 0 mm 1 mps 659 mmHg 37%
    22:00 +2°C° 0 mm 1 mps 659 mmHg 36%
    23:00 +2°C° 0 mm 1 mps 658 mmHg 36%

    16 December, Saturday

    Time Temperature Precipitation Wind Pressure Humidity
    00:00 +2°C° 0 mm 1 mps 658 mmHg 36%
    01:00 +2°C° 0 mm 1 mps 658 mmHg 36%
    02:00 +2°C° 0 mm 1 mps 658 mmHg 37%
    03:00 +2°C° 0 mm 1 mps 658 mmHg 37%
    04:00 +1°C° 0 mm 2 mps 658 mmHg 37%
    05:00 +2°C° 0 mm 2 mps 659 mmHg 37%
    06:00 +2°C° 0 mm 2 mps 659 mmHg 38%
    07:00 +2°C° 0 mm 2 mps 659 mmHg 38%
    08:00 +3°C° 0 mm 2 mps 660 mmHg 35%
    09:00 +5°C° 0 mm 2 mps 660 mmHg 32%
    10:00 +6°C° 0 mm 2 mps 660 mmHg 29%
    11:00 +7°C° 0 mm 2 mps 660 mmHg 28%
    12:00 +7°C° 0 mm 3 mps 660 mmHg 28%
    13:00 +8°C° 0 mm 3 mps 659 mmHg 27%
    14:00 +7°C° 0 mm 3 mps 659 mmHg 29%
    15:00 +5°C° 0 mm 3 mps 659 mmHg 32%
    16:00 +6°C° 0 mm 2 mps 659 mmHg 34%
    17:00 +5°C° 0 mm 2 mps 659 mmHg 36%
    18:00 +5°C° 0 mm 2 mps 660 mmHg 38%
    19:00 +4°C° 0 mm 2 mps 660 mmHg 40%
    20:00 +4°C° 0 mm 2 mps 660 mmHg 40%
    21:00 +3°C° 0 mm 2 mps 660 mmHg 41%
    22:00 +3°C° 0 mm 2 mps 660 mmHg 41%
    23:00 +3°C° 0 mm 2 mps 660 mmHg 41%

    17 December, Sunday

    Time Temperature Precipitation Wind Pressure Humidity
    00:00 +3°C° 0 mm 2 mps 660 mmHg 41%
    01:00 +3°C° 0 mm 2 mps 660 mmHg 40%
    02:00 +3°C° 0 mm 2 mps 660 mmHg 40%
    03:00 +2°C° 0 mm 2 mps 660 mmHg 40%
    04:00 +2°C° 0 mm 2 mps 660 mmHg 40%
    05:00 +2°C° 0 mm 2 mps 660 mmHg 40%
    06:00 +2°C° 0 mm 2 mps 660 mmHg 40%
    07:00 +2°C° 0 mm 2 mps 661 mmHg 40%
    08:00 +4°C° 0 mm 2 mps 661 mmHg 36%
    09:00 +6°C° 0 mm 2 mps 662 mmHg 32%
    10:00 +7°C° 0 mm 2 mps 662 mmHg 27%
    11:00 +8°C° 0 mm 2 mps 661 mmHg 27%
    12:00 +8°C° 0 mm 2 mps 661 mmHg 26%
    13:00 +9°C° 0 mm 3 mps 660 mmHg 26%
    14:00 +8°C° 0 mm 2 mps 660 mmHg 28%
    15:00 +7°C° 0 mm 2 mps 660 mmHg 31%
    16:00 +7°C° 0 mm 2 mps 659 mmHg 34%
    17:00 +6°C° 0 mm 2 mps 659 mmHg 35%
    18:00 +6°C° 0 mm 1 mps 659 mmHg 37%
    19:00 +5°C° 0 mm 1 mps 659 mmHg 38%
    20:00 +5°C° 0 mm 1 mps 659 mmHg 38%
    21:00 +5°C° 0 mm 1 mps 659 mmHg 38%
    22:00 +4°C° 0 mm 1 mps 659 mmHg 38%
    23:00 +4°C° 0 mm 1 mps 659 mmHg 38%
    Show more